Weather in Udon Thani

Thailand     17°24′25″N   102°47′25″E
temp.,
°C
wind,
m/s
gust,
m/s
humid.,
%
clouds,
%
prec.,
mm/h
press.,
hPa
HPBL,
m
27 july, tue
tue2701:00+25wsw2589100 0.2 1003126
04:00+25sw2289100 0.0 100338
07:00+25ssw258823 0.0 1004238
10:00+29sw466899 0.0 1004978
13:00+31w576391 0.2 10021552
16:00+31w576666 0.6 1000966
19:00+27w387965 1.3 1001164
22:00+26wsw3783100 0.0 1003160
28 july, wed
wed2801:00+25wsw3786100 0.0 1003203
04:00+24wsw2487100 0.0 1002108
07:00+25wsw2484100 0.0 1003163
10:00+30wsw4566100 0.0 1004955
13:00+32w665983 0.0 10011605
16:00+32wsw3656100 0.0 9991322
19:00+28sw3874100 0.0 1000187
22:00+27sw3978100 0.0 1003228
29 july, thu
thu2901:00+26wsw3782100 0.0 1002181
04:00+25wsw2383100 0.0 100158
07:00+26sw2482100 0.0 1003149
10:00+29wsw4568100 0.0 1004762
13:00+30wsw5662100 0.0 10021006
16:00+32sw4661100 0.0 10001393
19:00+28sw367798 0.0 1001155
22:00+26sw378091 0.2 1003177
30 july, fri
fri3001:00+26wsw3782100 0.3 1002160
04:00+25sw2379100 0.0 100257
07:00+26wsw2379100 0.0 1003133
10:00+30wsw356199 0.0 1004993
13:00+33w465399 0.0 10021660
16:00+33w3554100 0.0 10001494
19:00+29wsw2471100 0.3 1001120
22:00+27wsw3576100 0.1 1004151
31 july, sat
sat3101:00+26wsw3681100 0.1 1003145
04:00+25sw238198 0.0 100264
07:00+26sw2482100 0.0 1004162
10:00+30w4764100 0.0 10051079
13:00+32w5758100 0.0 10031690
16:00+31wsw256399 0.1 10011132
19:00+28sw3377100 1.4 100242
22:00+26sw3784100 1.1 1004169